Location: Windsor
(43.2292°N, 89.3015°W)
Time: 10:33:59
(UTC+00:00)

Tiros 1 - Pass Details

Date: 29 May 2022
Orbit: 629 x 663 km, 48.4° (Epoch: 04 July)

Event Time Altitude Azimuth Distance (km) Brightness Sun altitude
Exits shadow 05:23:09 23° 81° (E) 1,342 8.7 -24.7°
Drops below altitude 10° 05:25:02 10° 71° (ENE) 2,015 9.8 -24.8°
Sets 05:27:25 0° 66° (ENE) 2,930 10.7 -24.8°
